Location: Unspecified
(0.0000°N, 0.0000°E)
Time: 19:23:27
(UTC+00:00)

Vanguard 3 - Pass Details

Date: 12 December 2017
Orbit: 508 x 3264 km, 33.4° (Epoch: 19 January)

Event Time Altitude Azimuth Distance (km) Brightness Sun altitude
Rises 09:08:21 0° 240° (WSW) 5,814 11.3 43.7°
Reaches altitude 10° 09:12:58 10° 244° (WSW) 4,346 10.7 44.6°
Maximum altitude 09:23:26 59° 320° (NW) 1,383 8.6 46.8°
Drops below altitude 10° 09:29:16 10° 40° (NE) 2,486 9.8 48.0°
Sets 09:31:16 0° 44° (NE) 3,204 10.3 48.4°
